TimeMDT,TemperatureF,Dew PointF,Humidity,Sea Level PressureIn,VisibilityMPH,Wind Direction,Wind SpeedMPH,Gust SpeedMPH,PrecipitationIn,Events,Conditions,WindDirDegrees,DateUTC
12:53 AM,55.9,44.1,64,29.61,10.0,NW,16.1,-,N/A,,Scattered Clouds,310,2013-09-23 06:53:00
1:53 AM,55.9,44.1,64,29.65,10.0,Variable,5.8,-,N/A,,Overcast,0,2013-09-23 07:53:00
2:53 AM,55.9,45.0,67,29.67,10.0,SW,6.9,-,0.00,,Mostly Cloudy,230,2013-09-23 08:53:00
3:53 AM,55.0,44.1,67,29.67,10.0,WNW,11.5,-,N/A,,Scattered Clouds,290,2013-09-23 09:53:00
4:53 AM,55.9,42.1,60,29.68,10.0,West,11.5,-,N/A,,Overcast,270,2013-09-23 10:53:00
5:53 AM,54.0,41.0,62,29.70,10.0,West,11.5,-,0.00,,Mostly Cloudy,260,2013-09-23 11:53:00
6:53 AM,52.0,39.9,63,29.72,10.0,West,13.8,-,N/A,,Partly Cloudy,280,2013-09-23 12:53:00
7:53 AM,53.1,39.9,61,29.73,10.0,SW,6.9,-,N/A,,Partly Cloudy,220,2013-09-23 13:53:00
8:53 AM,55.0,42.1,62,29.75,10.0,SW,9.2,-,N/A,,Partly Cloudy,230,2013-09-23 14:53:00
9:53 AM,57.9,42.1,56,29.77,10.0,SSW,9.2,-,N/A,,Partly Cloudy,210,2013-09-23 15:53:00
10:53 AM,66.0,36.0,33,29.76,10.0,West,26.5,34.5,N/A,,Partly Cloudy,280,2013-09-23 16:53:00
11:53 AM,66.9,35.1,31,29.77,10.0,West,27.6,34.5,N/A,,Partly Cloudy,280,2013-09-23 17:53:00
12:53 PM,69.1,34.0,27,29.76,10.0,WNW,21.9,39.1,N/A,,Scattered Clouds,290,2013-09-23 18:53:00
1:53 PM,70.0,30.9,24,29.76,10.0,West,23.0,38.0,N/A,,Partly Cloudy,280,2013-09-23 19:53:00
2:53 PM,71.1,28.0,20,29.74,10.0,WNW,27.6,36.8,N/A,,Partly Cloudy,290,2013-09-23 20:53:00
3:53 PM,70.0,30.0,23,29.75,10.0,NW,20.7,31.1,N/A,,Partly Cloudy,310,2013-09-23 21:53:00
4:53 PM,70.0,30.0,23,29.75,10.0,NW,19.6,27.6,N/A,,Partly Cloudy,320,2013-09-23 22:53:00
5:53 PM,69.1,30.0,23,29.77,10.0,NNW,12.7,-,N/A,,Partly Cloudy,330,2013-09-23 23:53:00
6:53 PM,64.0,33.1,31,29.81,10.0,North,9.2,-,N/A,,Partly Cloudy,10,2013-09-24 00:53:00
7:53 PM,60.1,32.0,35,29.84,10.0,North,5.8,-,N/A,,Partly Cloudy,360,2013-09-24 01:53:00
8:53 PM,61.0,32.0,34,29.86,10.0,NNE,4.6,-,N/A,,Clear,20,2013-09-24 02:53:00
9:53 PM,57.0,34.0,42,29.88,10.0,NNE,4.6,-,N/A,,Partly Cloudy,20,2013-09-24 03:53:00
10:53 PM,55.9,33.1,42,29.87,10.0,NNE,4.6,-,N/A,,Clear,20,2013-09-24 04:53:00
11:53 PM,55.9,33.1,42,29.88,10.0,South,4.6,-,N/A,,Clear,180,2013-09-24 05:53:00